Temp
61 61 61 61 61 61 61 61 61 61 61 61 62 62 62 62 63 66 56 62 64 66 64 65 65 64 67 64 65 65 58 55 56 56 58 60 57 66 67 66 67 69 69 70 71
61 60 61 60 60 61 61 61 61 61 61 61 62 62 62 61 62 60 64 66 65 65 64 60 60 63 61 59 61 61 55 56 55 55 55 57 57 60 60 63 64 68 73 73 71
60 60 60 60 60 60 61 61 61 61 61 61 61 62 62 62 59 57 65 65 64 65 62 61 60 61 56 58 54 55 55 53 55 56 56 55 56 60 58 57 65 63 63 66 67
59 59 59 59 60 60 60 60 61 61 61 61 61 62 61 62 49 62 63 63 63 65 62 61 59 55 53 52 53 52 52 53 54 54 52 53 57 55 57 59 64 63 64 65 65
59 58 58 58 59 60 60 60 60 60 60 61 61 61 62 57 55 67 62 61 64 63 58 56 54 53 50 51 51 50 51 52 53 53 52 54 52 53 55 62 63 64 64 64 65
58 58 58 58 59 59 60 60 60 60 60 61 62 61 61 50 65 65 60 61 60 60 59 59 53 54 50 49 50 49 49 51 52 52 52 49 52 53 59 61 61 62 63 63 63
58 57 57 58 58 59 59 60 60 60 60 61 62 63 59 54 64 64 60 58 58 58 56 57 57 55 51 47 50 48 47 52 51 51 50 52 50 51 61 61 58 59 61 61 62
57 57 57 57 58 58 59 59 59 60 61 62 61 62 54 63 67 62 62 60 61 60 58 59 59 54 51 50 48 46 48 45 54 49 50 50 45 55 62 58 56 57 59 59 60
57 57 57 57 58 58 58 58 59 60 61 61 61 59 52 64 58 60 59 55 57 59 59 60 57 51 52 47 47 46 41 41 44 50 46 45 42 53 59 57 55 56 57 56 57
57 57 57 57 58 58 58 58 60 60 61 62 60 56 56 51 55 57 60 57 54 54 55 53 52 49 49 47 36 37 38 40 40 47 45 43 45 53 56 55 53 54 53 54 56
57 57 57 57 58 58 56 60 58 57 55 49 48 48 51 56 56 57 56 55 54 52 46 47 48 40 41 42 41 39 37 37 44 47 40 43 44 50 55 53 52 52 52 54 55
57 57 57 57 58 56 55 51 46 49 47 50 50 51 53 52 50 54 58 50 48 44 45 47 41 42 43 42 39 40 38 40 43 43 41 43 42 50 52 51 52 52 52 53 54
56 56 56 57 56 54 51 47 52 51 50 48 49 49 49 52 47 48 52 47 44 43 40 41 40 42 40 40 38 41 37 38 35 40 44 40 44 45 51 50 51 51 52 53 53
56 56 56 56 55 51 49 51 52 51 43 44 47 48 50 49 45 51 51 47 44 40 40 41 42 39 39 38 38 34 40 38 37 35 31 40 29 44 46 48 48 50 52 54 54
56 55 55 55 52 50 49 51 52 51 34 43 45 54 49 47 43 47 50 49 41 39 41 39 38 37 37 38 39 37 41 38 36 33 30 34 27 42 50 45 47 49 50 52 52
55 55 55 54 52 49 50 51 51 38 34 36 43 41 44 43 43 44 45 48 45 40 39 39 40 39 39 41 40 41 39 37 36 33 23 33 32 38 43 45 47 48 49 49 50
55 54 52 51 50 49 50 51 35 34 38 35 37 39 39 37 40 40 38 38 36 34 33 38 38 40 40 38 41 40 33 27 25 25 26 35 32 38 46 48 46 46 47 46 47
54 52 48 48 49 50 50 41 34 30 33 35 36 37 38 35 36 37 37 36 37 34 32 30 33 37 38 37 33 33 31 25 17 22 25 36 25 38 46 48 48 49 44 44 44
53 48 48 47 48 49 46 33 35 34 34 33 33 33 32 33 35 36 33 34 35 35 30 31 33 38 37 38 37 31 29 35 25 26 21 31 36 45 45 45 45 42 40 40 39
47 46 45 47 48 48 35 37 34 38 36 36 35 29 33 30 33 34 31 35 34 37 37 31 26 35 36 38 38 34 37 26 27 18 18 27 30 35 38 36 36 36 38 38 37
44 40 44 46 47 42 33 34 33 38 39 37 33 26 30 31 29 29 30 33 37 35 37 33 28 33 33 33 33 32 29 29 29 27 20 19 30 42 39 38 36 35 38 36 34
41 32 44 46 35 27 32 32 38 36 38 36 36 33 32 27 28 29 32 33 39 38 29 34 27 24 32 35 36 35 29 29 23 22 26 23 25 45 44 42 39 34 36 35 34
36 34 43 44 32 31 31 34 38 35 36 35 35 36 31 28 31 27 31 37 38 36 30 32 25 22 30 31 33 31 33 32 26 25 21 19 28 49 45 41 36 34 34 32 31
36 30 33 37 35 34 32 33 33 38 37 37 35 36 31 26 28 27 30 34 37 37 37 37 25 23 29 31 29 27 30 32 25 19 23 25 29 35 36 33 32 33 32 31 30
37 33 34 28 30 34 35 36 32 31 37 38 33 36 34 25 25 25 30 31 34 37 36 34 21 20 23 27 27 26 25 27 23 23 21 30 24 30 33 31 31 31 31 30 27
35 32 32 32 33 33 33 33 34 32 34 33 32 38 36 30 35 26 28 30 30 33 32 32 24 22 17 24 25 22 28 28 26 25 24 26 25 40 39 36 33 30 29 27 26
39 39 40 33 31 30 35 34 35 36 36 38 37 35 33 36 37 35 36 36 36 31 28 27 23 18 21 21 22 20 29 31 29 29 27 26 35 36 33 32 32 29 28 26 25
MSLP
1022.94 1022.67 1022.51 1022.25 1022.16 1021.77 1021.58 1021.27 1021.03 1020.67 1020.31 1019.89 1019.58 1019.33 1018.96 1018.78 1018.65 1017.81 1017.46 1018.70 1018.03 1017.14 1016.66 1016.04 1015.60 1015.32 1014.99 1014.70 1014.55 1014.08 1013.27 1012.42 1012.84 1013.03 1012.98 1013.83 1013.21 1012.35 1012.34 1011.71 1011.04 1010.66 1010.73 1011.01 1011.16
1022.99 1022.80 1022.57 1022.28 1022.13 1021.75 1021.60 1021.26 1020.99 1020.71 1020.27 1019.91 1019.57 1019.24 1018.91 1018.73 1018.53 1018.06 1018.89 1018.37 1017.87 1017.32 1016.60 1016.12 1015.70 1015.45 1015.20 1015.21 1015.11 1014.45 1014.19 1013.70 1014.67 1014.67 1014.41 1014.37 1014.20 1013.86 1013.17 1011.99 1011.40 1010.76 1010.61 1010.96 1011.33
1023.05 1022.87 1022.63 1022.34 1022.10 1021.76 1021.52 1021.22 1020.95 1020.66 1020.19 1019.84 1019.50 1019.09 1018.85 1018.72 1018.42 1018.72 1018.72 1018.36 1017.87 1017.30 1016.95 1016.65 1016.17 1015.61 1015.60 1015.89 1016.12 1015.64 1014.81 1015.47 1015.31 1015.60 1015.70 1015.30 1014.82 1014.49 1013.77 1012.46 1011.80 1011.63 1011.80 1011.89 1011.67
1023.19 1022.97 1022.70 1022.39 1022.12 1021.73 1021.40 1021.08 1020.86 1020.57 1020.18 1019.84 1019.48 1019.04 1018.85 1018.68 1019.23 1019.01 1018.94 1018.56 1018.07 1017.47 1016.85 1016.65 1016.31 1016.05 1016.17 1016.22 1016.68 1016.26 1016.15 1016.09 1016.07 1016.22 1016.20 1015.62 1015.36 1014.47 1013.96 1012.90 1012.75 1012.82 1012.67 1012.29 1011.94
1023.26 1022.97 1022.75 1022.42 1022.07 1021.65 1021.31 1021.00 1020.70 1020.35 1020.02 1019.76 1019.47 1019.08 1018.81 1018.80 1019.52 1019.30 1019.12 1018.62 1017.98 1017.57 1017.22 1016.93 1016.74 1016.92 1016.95 1017.28 1017.33 1017.02 1017.01 1016.97 1016.95 1016.93 1016.78 1016.42 1015.62 1015.04 1013.84 1013.17 1013.08 1012.86 1012.54 1012.13 1011.92
1023.27 1022.94 1022.70 1022.38 1021.97 1021.59 1021.26 1020.89 1020.53 1020.23 1019.89 1019.71 1019.35 1019.01 1018.69 1019.19 1019.77 1019.64 1019.42 1018.73 1018.45 1018.12 1017.88 1017.47 1017.67 1017.63 1017.63 1017.91 1017.75 1017.95 1017.57 1017.10 1017.02 1016.87 1016.63 1016.24 1015.04 1014.41 1012.87 1012.84 1012.61 1012.46 1012.09 1012.00 1011.77
1023.22 1022.93 1022.67 1022.36 1021.90 1021.55 1021.15 1020.71 1020.42 1020.16 1019.89 1019.70 1019.46 1019.11 1019.00 1019.97 1019.82 1019.71 1019.52 1019.28 1019.08 1018.71 1018.29 1018.29 1018.21 1017.89 1018.26 1018.36 1018.56 1018.14 1017.29 1016.63 1016.56 1016.66 1016.35 1015.94 1014.27 1013.30 1012.42 1012.61 1012.51 1012.22 1011.93 1011.74 1011.56
1023.20 1022.86 1022.61 1022.27 1021.81 1021.42 1021.01 1020.46 1020.24 1020.01 1019.76 1019.64 1019.51 1019.37 1019.65 1019.93 1019.78 1019.66 1019.36 1019.22 1019.16 1018.93 1018.72 1018.55 1018.35 1018.16 1018.51 1019.02 1018.80 1018.16 1017.57 1016.68 1015.95 1016.54 1016.43 1016.02 1013.48 1012.51 1011.89 1012.42 1012.14 1011.95 1011.70 1011.53 1011.37
1023.10 1022.81 1022.51 1022.10 1021.67 1021.19 1020.78 1020.40 1020.12 1019.86 1019.74 1019.61 1019.51 1019.55 1020.11 1020.01 1020.00 1020.08 1020.00 1019.64 1019.29 1019.03 1018.88 1018.61 1018.44 1018.84 1018.89 1018.65 1018.32 1018.50 1017.85 1017.59 1016.80 1016.67 1016.74 1016.12 1014.02 1011.88 1011.97 1012.04 1011.56 1011.47 1011.57 1011.64 1011.30
1023.01 1022.73 1022.45 1022.08 1021.55 1020.89 1020.44 1020.35 1020.15 1019.88 1019.69 1019.59 1019.85 1020.27 1020.50 1020.95 1020.83 1020.43 1020.07 1019.79 1019.40 1019.12 1018.83 1018.86 1019.05 1019.19 1019.24 1018.79 1019.24 1019.21 1018.74 1018.24 1017.40 1016.84 1016.75 1015.56 1013.42 1011.82 1011.60 1011.46 1011.30 1011.37 1011.60 1011.51 1011.17
1022.95 1022.71 1022.40 1022.00 1021.58 1020.97 1020.34 1020.24 1020.74 1020.78 1020.50 1021.21 1021.61 1021.47 1021.39 1021.32 1021.18 1020.62 1020.35 1020.01 1019.59 1019.28 1019.48 1019.85 1019.43 1020.11 1020.59 1020.58 1020.66 1020.33 1019.67 1018.61 1017.50 1017.15 1016.86 1015.06 1012.99 1011.69 1011.08 1011.06 1011.05 1011.29 1011.29 1011.14 1011.08
1022.75 1022.61 1022.33 1021.98 1021.54 1021.23 1020.91 1021.38 1022.54 1023.12 1022.54 1021.94 1021.81 1021.88 1021.91 1022.00 1021.34 1020.92 1020.71 1020.53 1020.22 1020.19 1020.23 1020.12 1020.46 1021.26 1021.36 1021.14 1020.97 1020.46 1019.61 1018.38 1017.54 1017.46 1017.07 1014.71 1012.56 1011.30 1010.91 1010.89 1010.93 1011.06 1011.12 1011.11 1010.89
1022.55 1022.48 1022.28 1021.93 1021.61 1021.57 1022.06 1022.81 1023.04 1022.85 1022.45 1022.44 1022.09 1021.99 1022.41 1022.36 1022.12 1021.88 1021.60 1021.56 1021.30 1021.11 1021.16 1020.80 1021.48 1021.67 1021.63 1021.33 1021.03 1020.21 1019.67 1019.04 1018.96 1017.42 1016.26 1015.48 1012.26 1011.13 1010.71 1010.96 1011.16 1011.21 1011.18 1010.94 1010.72
1022.43 1022.31 1022.18 1021.72 1022.00 1022.35 1022.61 1023.05 1023.09 1023.02 1022.61 1022.77 1022.23 1022.41 1022.39 1022.33 1022.58 1022.64 1022.44 1022.51 1022.05 1022.11 1021.85 1021.70 1022.00 1021.96 1021.63 1021.48 1021.48 1020.38 1020.08 1019.81 1019.12 1018.61 1016.80 1016.34 1013.48 1011.07 1010.67 1010.39 1010.61 1010.68 1010.63 1010.63 1010.44
1022.41 1022.31 1022.33 1021.62 1022.26 1022.56 1023.11 1023.03 1022.99 1022.83 1022.85 1022.85 1022.47 1022.46 1022.35 1022.40 1023.40 1022.90 1023.03 1022.33 1022.49 1022.60 1022.65 1022.32 1022.38 1022.10 1021.68 1021.73 1021.75 1020.60 1020.27 1019.58 1019.08 1018.57 1017.92 1016.13 1015.42 1010.75 1010.08 1009.88 1010.12 1010.53 1010.76 1010.59 1010.50
1022.25 1022.39 1022.31 1022.21 1022.57 1022.95 1023.07 1022.92 1022.98 1022.75 1022.93 1023.00 1022.78 1022.82 1022.58 1022.99 1023.47 1023.43 1023.15 1022.98 1023.37 1022.96 1022.91 1022.89 1023.27 1022.91 1022.27 1022.02 1021.82 1021.29 1019.94 1019.41 1019.18 1018.66 1017.69 1015.83 1015.02 1010.73 1010.01 1010.08 1010.21 1010.89 1011.09 1011.12 1010.76
1021.99 1022.49 1022.49 1022.62 1023.18 1022.65 1023.07 1022.82 1023.20 1022.87 1023.63 1023.69 1023.57 1023.44 1023.46 1023.64 1023.78 1023.99 1024.04 1023.86 1024.18 1023.72 1023.41 1022.93 1022.92 1022.95 1022.85 1022.26 1021.85 1021.57 1020.66 1019.63 1019.19 1018.52 1016.97 1016.04 1014.89 1011.29 1010.50 1010.40 1010.88 1011.28 1011.43 1011.60 1011.28
1021.90 1022.43 1023.03 1023.13 1023.52 1022.81 1022.74 1022.96 1023.26 1022.89 1022.98 1023.66 1023.84 1023.88 1024.01 1024.60 1024.68 1024.65 1024.63 1024.83 1025.15 1025.20 1024.87 1024.20 1022.94 1023.05 1023.14 1022.97 1022.83 1022.61 1022.25 1021.76 1021.13 1019.34 1017.25 1015.82 1013.90 1010.98 1010.98 1011.09 1011.55 1011.64 1011.86 1011.63 1011.07
1021.82 1022.78 1022.94 1023.32 1023.39 1023.24 1022.74 1023.61 1022.48 1022.70 1023.12 1023.67 1024.29 1024.22 1024.71 1025.18 1025.31 1025.05 1025.25 1025.34 1025.41 1025.94 1025.92 1025.12 1023.77 1023.30 1023.39 1023.46 1023.61 1023.07 1022.84 1022.85 1022.18 1020.59 1018.87 1015.19 1013.20 1011.45 1011.29 1011.73 1012.04 1012.29 1012.41 1011.71 1011.38
1021.70 1022.79 1023.36 1023.71 1023.47 1023.27 1023.43 1023.21 1023.09 1023.06 1023.39 1023.68 1024.06 1024.60 1024.97 1025.39 1025.59 1025.63 1025.74 1025.81 1025.78 1026.27 1026.37 1026.09 1025.10 1023.53 1023.61 1023.76 1023.74 1023.61 1023.67 1023.36 1022.83 1021.13 1018.65 1015.12 1013.12 1011.24 1011.61 1012.26 1012.62 1012.63 1012.24 1011.79 1011.69
1022.16 1023.01 1023.99 1023.88 1023.65 1023.49 1023.92 1023.61 1023.46 1023.62 1023.61 1023.88 1023.87 1024.82 1025.24 1025.74 1025.86 1026.08 1026.00 1026.30 1026.02 1026.55 1026.74 1026.53 1026.37 1024.21 1024.00 1023.60 1023.49 1023.87 1023.89 1023.89 1023.50 1022.33 1020.48 1017.05 1013.12 1012.23 1012.45 1012.57 1012.48 1012.80 1012.47 1012.19 1011.79
1022.23 1023.54 1023.98 1024.04 1024.31 1024.40 1023.72 1023.40 1023.57 1023.80 1024.08 1023.86 1024.13 1024.61 1025.16 1025.98 1025.99 1026.27 1025.99 1026.02 1026.18 1026.41 1027.05 1026.94 1026.74 1025.25 1023.84 1023.74 1023.94 1023.72 1023.91 1024.02 1023.71 1022.84 1021.49 1019.64 1014.37 1012.56 1012.23 1012.56 1013.21 1013.15 1012.79 1012.73 1012.27
1021.91 1023.15 1024.10 1024.11 1024.02 1024.15 1023.98 1023.52 1023.44 1023.68 1023.84 1023.90 1024.26 1024.42 1025.91 1025.91 1026.40 1026.41 1026.30 1026.28 1026.35 1026.56 1027.10 1027.16 1027.00 1026.00 1024.06 1024.41 1024.10 1023.80 1023.68 1023.82 1024.21 1024.04 1021.72 1019.90 1014.42 1012.25 1012.46 1013.01 1013.70 1013.37 1013.25 1012.94 1012.33
1021.27 1023.00 1024.16 1024.19 1024.29 1023.41 1023.45 1023.26 1023.29 1023.35 1023.48 1023.68 1024.18 1024.59 1025.58 1026.12 1026.50 1026.47 1026.48 1026.48 1026.64 1026.64 1027.09 1027.25 1027.34 1026.59 1025.34 1024.18 1024.24 1023.83 1023.71 1023.88 1024.27 1023.91 1021.47 1018.92 1015.29 1013.31 1013.25 1013.79 1013.73 1013.56 1013.73 1013.29 1012.72
1019.67 1020.73 1021.22 1022.94 1023.25 1023.02 1022.62 1022.32 1022.41 1022.95 1023.28 1023.43 1023.91 1023.91 1024.31 1025.66 1026.28 1026.30 1026.36 1026.70 1026.89 1027.06 1027.35 1027.42 1027.55 1027.19 1025.81 1024.76 1024.46 1023.68 1023.23 1023.34 1023.28 1022.55 1021.86 1017.66 1016.97 1015.22 1014.81 1014.76 1014.45 1014.51 1014.08 1013.50 1013.04
1017.65 1019.41 1021.03 1021.45 1021.52 1022.30 1022.55 1022.05 1021.36 1022.05 1022.28 1022.82 1022.93 1022.94 1023.83 1024.42 1024.46 1025.04 1025.60 1026.11 1026.14 1027.43 1027.42 1027.82 1027.77 1027.63 1025.96 1024.95 1024.10 1022.94 1021.89 1021.73 1021.92 1021.93 1021.00 1019.36 1017.06 1015.58 1015.35 1015.26 1015.02 1015.16 1014.54 1014.01 1013.73
1017.11 1017.57 1017.91 1020.21 1020.90 1021.59 1021.05 1020.97 1020.84 1020.69 1021.84 1021.89 1022.06 1022.88 1023.75 1023.89 1024.22 1024.87 1025.47 1025.48 1025.70 1026.67 1027.26 1027.97 1028.42 1028.26 1026.31 1025.18 1023.75 1021.76 1018.95 1019.33 1019.62 1019.59 1019.21 1018.14 1016.11 1015.72 1015.65 1015.66 1015.77 1015.70 1015.33 1014.98 1014.53
Wind_Speed
12 13 14 13 13 13 14 14 14 14 13 12 12 11 8 6 4 14 18 14 14 18 14 6 1 1 2 4 3 2 6 9 11 7 1 7 10 5 11 11 10 5 9 5 11
12 13 14 13 13 13 14 14 15 14 12 12 11 12 6 0 0 16 14 20 17 15 6 6 5 3 4 3 3 4 5 6 1 2 6 11 10 14 10 15 16 18 3 14 16
11 13 13 13 13 13 14 14 15 14 13 12 12 12 4 1 1 7 18 22 16 12 3 3 1 2 4 2 4 0 4 1 2 6 8 10 13 6 12 16 15 17 20 20 20
11 12 12 13 13 13 14 14 15 14 13 13 13 10 2 2 3 8 18 19 12 8 4 8 4 3 3 3 3 2 2 5 6 7 7 8 10 10 13 17 12 16 13 16 19
10 11 12 13 13 14 14 14 14 14 13 13 13 8 2 6 6 10 17 13 4 6 12 4 9 2 4 3 2 1 3 6 5 7 5 7 8 13 20 17 9 12 15 17 17
9 11 12 13 13 14 15 16 15 12 11 11 13 4 1 6 5 9 11 6 9 7 9 10 5 4 7 3 2 3 7 8 4 5 1 8 18 5 7 9 10 16 20 19 21
9 11 12 12 13 15 16 17 14 11 8 8 9 2 9 6 3 9 9 3 5 3 4 4 3 2 1 2 4 3 4 5 4 5 4 14 6 7 11 10 18 22 20 20 18
9 10 12 12 13 15 18 15 10 8 6 5 4 2 4 1 5 10 11 1 4 3 2 4 2 6 5 1 1 3 1 7 5 9 3 10 10 17 18 15 21 19 16 15 15
8 10 12 12 13 15 18 14 7 5 4 4 1 2 2 4 5 7 6 6 5 2 6 3 3 4 3 3 2 7 7 9 11 5 5 4 18 20 23 18 17 14 11 8 7
8 9 11 12 13 14 16 5 6 2 3 2 3 2 5 6 6 8 5 4 4 2 1 6 5 4 9 10 5 9 8 7 14 7 9 17 23 22 19 15 14 8 2 4 6
7 9 11 12 14 14 7 1 1 1 9 6 2 1 3 9 4 14 7 4 3 7 5 4 6 9 8 5 4 8 11 15 16 9 14 12 25 22 17 10 5 4 4 6 10
6 8 10 11 12 9 3 5 3 3 4 2 1 1 1 3 4 15 11 4 6 5 3 2 5 3 6 3 5 9 13 12 12 3 12 17 24 18 7 3 6 5 4 7 11
4 7 9 12 5 4 5 3 3 2 1 2 2 3 4 6 4 11 10 3 7 5 7 2 3 4 3 3 8 12 6 13 12 21 3 12 13 5 3 5 6 7 6 7 10
4 4 7 10 1 1 3 3 3 1 2 2 2 3 1 2 3 4 6 3 3 3 2 2 2 3 3 3 6 8 1 14 17 12 7 8 8 10 3 11 9 9 7 10 15
3 1 5 9 4 2 2 3 1 2 2 2 1 2 2 5 5 5 3 2 2 4 4 3 2 3 1 4 5 9 17 19 14 8 7 3 4 8 11 7 8 6 11 15 16
3 2 0 2 1 2 1 1 2 4 5 1 2 4 1 5 4 7 4 5 1 0 0 2 1 2 3 9 4 14 12 3 2 2 4 3 5 12 7 6 8 7 12 17 22
7 4 3 1 1 3 0 1 4 3 2 1 1 3 2 5 4 8 5 8 6 5 7 4 2 0 2 6 1 12 7 5 4 2 5 3 9 13 14 14 11 11 20 22 26
12 6 4 3 1 2 2 4 2 1 5 2 1 2 2 4 3 4 2 3 6 3 2 5 2 1 2 2 4 5 4 3 7 6 13 16 10 7 6 4 6 17 19 24 25
14 2 2 2 0 2 3 2 6 5 4 8 3 2 2 2 1 1 3 2 1 1 3 3 5 1 2 1 2 1 1 2 6 6 7 5 8 14 4 7 20 24 23 26 17
4 2 2 2 1 1 5 5 3 2 5 2 4 2 4 3 3 1 2 3 4 1 2 2 7 3 1 1 2 3 4 2 2 6 9 8 13 13 14 20 20 22 24 22 24
3 3 2 3 2 3 4 6 3 2 1 3 4 4 2 3 2 3 4 2 3 4 1 3 3 1 2 4 1 3 2 3 4 4 5 9 9 4 13 20 23 24 25 24 23
3 3 2 2 2 1 4 6 4 4 2 2 3 3 4 7 4 4 5 3 5 6 3 4 2 6 3 2 3 3 3 2 3 2 5 6 11 6 13 21 24 22 21 24 22
4 4 2 2 4 3 1 3 4 6 5 5 4 1 2 5 3 4 4 3 6 5 6 6 2 6 2 4 3 4 5 5 1 2 10 5 10 15 19 23 22 20 21 22 21
5 5 2 0 1 3 5 4 5 2 4 3 4 4 4 2 1 4 6 5 6 5 6 5 3 5 6 4 3 7 5 7 4 4 5 13 20 25 25 25 22 19 20 20 19
3 4 4 7 7 5 1 7 7 8 2 5 3 9 7 5 3 5 4 4 3 5 4 4 5 5 12 18 15 18 20 14 15 12 9 10 14 26 21 22 16 15 21 20 20
8 8 2 5 4 11 3 7 10 5 10 6 6 10 10 6 5 8 9 5 5 6 7 4 3 4 6 4 4 10 16 17 17 16 19 23 27 12 18 18 16 17 20 20 19
1 3 6 10 8 8 10 7 9 10 5 1 11 7 10 8 4 4 4 6 8 9 8 5 2 2 6 7 11 8 9 12 6 10 6 9 11 14 18 18 14 19 19 19 18
Wind_Direction
4 1 356 355 350 353 351 351 350 349 346 347 344 338 337 328 326 45 37 351 336 332 330 320 13 81 103 98 20 290 239 256 259 264 338 352 345 339 329 278 327 314 321 17 359
3 357 352 355 348 348 346 348 348 346 345 346 342 337 340 199 355 38 1 350 340 344 347 16 86 133 86 55 31 231 234 243 18 357 312 323 325 322 310 304 296 297 283 331 334
359 354 350 351 346 344 343 345 343 341 342 342 338 343 347 210 129 356 352 346 338 339 305 8 18 69 88 66 24 21 270 65 158 342 334 309 296 312 287 281 293 314 317 319 319
354 349 345 344 339 339 339 340 338 336 340 337 333 337 47 257 44 336 343 339 336 345 84 39 34 63 71 87 18 256 13 345 333 331 312 305 314 285 279 280 304 305 311 310 310
345 347 340 338 336 334 334 334 332 332 336 333 328 335 224 59 30 335 336 338 351 355 36 48 58 79 101 92 118 39 337 290 283 288 270 298 283 286 274 277 277 285 295 304 307
342 343 338 333 333 332 330 330 326 323 327 325 326 311 43 72 313 335 334 335 19 8 33 37 54 62 93 76 23 335 287 284 243 353 351 326 307 267 276 214 280 308 307 310 307
341 340 335 330 332 330 327 328 323 316 317 318 330 355 70 87 335 339 353 9 348 355 49 44 54 77 112 111 359 326 296 289 194 347 344 323 238 253 295 275 298 305 307 309 311
339 339 331 329 332 332 329 328 323 315 313 334 3 342 73 18 327 1 351 283 22 30 41 24 59 84 35 354 25 354 311 338 339 341 30 343 309 293 298 317 301 302 301 312 321
332 334 329 330 333 334 334 324 317 324 353 357 61 5 58 335 358 343 9 348 318 21 33 52 57 56 37 4 158 37 322 318 310 313 304 312 299 286 305 307 300 308 315 327 350
321 330 328 329 332 335 331 307 323 324 4 115 100 164 38 333 315 330 359 351 24 319 101 35 45 51 30 16 9 325 317 302 295 335 324 302 287 301 310 308 302 311 314 318 327
321 331 329 332 334 345 352 27 218 146 40 66 61 53 320 325 278 3 357 327 355 63 31 27 44 35 4 3 309 287 285 291 294 333 323 306 295 307 312 309 295 198 245 316 327
321 328 328 330 336 359 46 64 74 354 92 44 87 6 321 337 332 5 360 33 28 46 334 174 64 28 320 317 301 296 292 308 303 237 326 316 301 309 301 253 216 202 269 322 324
314 329 331 328 338 33 57 67 336 350 352 41 61 47 349 341 43 356 4 10 28 36 22 46 80 328 322 321 329 322 275 325 314 315 277 304 284 280 260 223 215 221 273 289 313
291 330 348 331 235 342 61 354 356 356 88 3 10 49 50 356 77 344 18 4 49 22 347 50 53 325 309 319 340 308 326 305 302 314 302 19 286 300 222 288 235 232 271 319 329
259 292 30 35 125 61 88 342 43 222 311 112 24 336 65 63 324 35 359 359 63 334 294 37 329 332 332 348 330 277 316 294 300 274 318 167 258 271 298 293 248 258 320 323 326
202 206 167 72 53 93 324 161 235 54 258 205 326 342 124 39 36 312 8 52 35 222 38 330 313 271 341 303 281 305 299 305 184 272 252 200 254 283 302 298 291 288 317 325 326
151 107 60 51 212 127 299 240 40 177 61 265 36 16 69 28 58 16 28 32 19 356 358 321 126 121 346 313 171 347 327 339 329 302 285 147 293 264 295 293 283 314 325 329 321
139 115 41 50 288 132 128 52 189 349 203 140 149 110 99 359 63 27 106 86 49 7 55 339 299 344 28 6 326 6 354 36 305 310 298 288 236 279 318 308 312 327 328 322 318
129 75 84 70 161 294 92 100 223 201 137 157 119 115 116 109 6 118 53 121 85 0 332 315 261 227 215 4 259 97 350 25 264 244 270 256 273 283 15 330 325 322 321 322 321
109 125 88 352 253 51 73 243 226 149 138 156 191 269 164 169 183 171 179 172 159 230 283 198 287 162 23 253 206 280 357 238 206 302 296 273 297 313 349 330 319 326 327 326 324
63 100 26 343 280 63 182 226 219 211 180 182 180 139 153 172 182 179 156 173 190 165 235 171 273 124 263 197 262 192 184 216 282 259 292 309 299 12 344 327 336 329 329 331 329
140 138 24 328 107 338 184 187 156 162 218 146 121 97 156 170 150 205 209 229 161 160 200 187 207 269 254 133 276 235 219 220 249 263 262 277 273 286 330 340 339 323 329 332 330
122 110 41 301 177 211 262 170 193 153 202 171 157 77 149 168 184 205 208 148 163 164 190 183 218 301 174 158 171 223 190 206 104 278 244 274 276 314 327 338 332 324 336 333 333
151 125 112 229 290 191 167 199 185 204 151 143 124 114 139 142 289 179 212 178 183 188 177 182 191 236 250 306 5 263 235 228 160 237 266 245 283 301 326 334 329 334 335 334 338
186 169 188 171 217 228 248 168 151 173 209 182 157 217 176 149 166 219 178 157 172 195 180 200 254 217 263 270 277 274 267 250 228 222 240 287 300 302 316 330 324 333 334 339 345
140 150 98 137 129 169 212 221 179 163 160 206 211 192 187 171 197 192 158 198 174 175 176 176 267 298 280 281 256 271 258 249 240 241 255 268 280 276 333 327 333 343 340 344 347
143 45 115 156 145 158 207 216 205 132 236 274 194 133 201 218 127 68 70 99 155 167 169 169 229 333 269 341 309 266 238 198 185 192 199 258 296 328 326 327 340 343 346 346 345